Location: Newark
(47.3150°N, 5.1150°E)
Time: 12:37:25
(UTC+00:00)

O/OREOS (USA 219) - Pass Details

Date: 22 December 2019
Orbit: 621 x 646 km, 72.0° (Epoch: 22 May)

Event Time Altitude Azimuth Distance (km) Brightness Sun altitude
Rises 19:18:53 0° 211° (SSW) 2,942 ? -33.9°
Reaches altitude 10° 19:21:09 10° 214° (SSW) 2,038 ? -34.2°
Enters shadow 19:21:18 11° 214° (SW) 1,983 ? -34.3°
